TimeCDT,TemperatureF,Dew PointF,Humidity,Sea Level PressureIn,VisibilityMPH,Wind Direction,Wind SpeedMPH,Gust SpeedMPH,PrecipitationIn,Events,Conditions,WindDirDegrees,DateUTC
12:53 AM,66.9,54.0,63,29.74,10.0,SSE,13.8,-,N/A,,Partly Cloudy,160,2013-05-01 05:53:00
1:53 AM,64.9,54.0,68,29.74,10.0,SSE,13.8,-,N/A,,Scattered Clouds,160,2013-05-01 06:53:00
2:53 AM,64.0,55.0,73,29.73,10.0,SSE,12.7,-,N/A,,Scattered Clouds,160,2013-05-01 07:53:00
3:53 AM,64.9,57.0,75,29.73,10.0,SSE,12.7,-,N/A,,Scattered Clouds,150,2013-05-01 08:53:00
4:53 AM,64.0,57.0,78,29.74,10.0,SSE,13.8,-,N/A,,Scattered Clouds,150,2013-05-01 09:53:00
5:53 AM,62.6,57.2,82,29.81,10.0,ESE,8.1,-,N/A,,Scattered Clouds,110,2013-05-01 10:53:00
6:53 AM,62.1,57.0,84,29.84,10.0,NNE,5.8,-,N/A,,Scattered Clouds,30,2013-05-01 11:53:00
7:53 AM,66.0,59.0,78,29.87,10.0,ENE,8.1,-,N/A,,Mostly Cloudy,60,2013-05-01 12:53:00
8:53 AM,68.0,60.1,76,29.89,10.0,East,4.6,-,N/A,,Mostly Cloudy,100,2013-05-01 13:53:00
9:53 AM,66.9,61.0,81,29.89,10.0,ESE,10.4,-,N/A,,Mostly Cloudy,120,2013-05-01 14:53:00
10:53 AM,68.0,61.0,78,29.91,10.0,SE,8.1,-,N/A,,Mostly Cloudy,130,2013-05-01 15:53:00
11:53 AM,72.0,63.0,73,29.91,10.0,ESE,10.4,-,N/A,,Mostly Cloudy,120,2013-05-01 16:53:00
12:13 PM,73.4,62.6,69,29.94,10.0,SE,15.0,19.6,N/A,,Overcast,130,2013-05-01 17:13:00
12:53 PM,70.0,60.1,71,29.92,10.0,NNW,8.1,-,N/A,,Overcast,330,2013-05-01 17:53:00
1:15 PM,66.2,55.4,68,29.95,10.0,NNW,15.0,-,N/A,,Overcast,340,2013-05-01 18:15:00
1:27 PM,64.4,53.6,68,29.95,10.0,North,17.3,-,N/A,,Mostly Cloudy,350,2013-05-01 18:27:00
1:53 PM,64.9,54.0,68,29.95,10.0,North,18.4,-,N/A,,Mostly Cloudy,350,2013-05-01 18:53:00
2:53 PM,61.0,48.9,64,29.99,10.0,North,20.7,26.5,N/A,,Mostly Cloudy,350,2013-05-01 19:53:00
3:53 PM,57.9,46.9,67,30.02,10.0,North,18.4,29.9,N/A,,Overcast,360,2013-05-01 20:53:00
4:53 PM,54.0,45.0,72,30.04,10.0,North,24.2,34.5,N/A,,Mostly Cloudy,360,2013-05-01 21:53:00
5:53 PM,52.0,43.0,71,30.07,10.0,North,24.2,33.4,N/A,,Mostly Cloudy,360,2013-05-01 22:53:00
6:53 PM,46.9,41.0,80,30.10,10.0,North,27.6,34.5,N/A,,Overcast,350,2013-05-01 23:53:00
7:53 PM,43.0,37.9,82,30.14,10.0,North,23.0,38.0,N/A,,Overcast,360,2013-05-02 00:53:00
8:53 PM,41.0,37.0,86,30.19,10.0,North,20.7,35.7,N/A,,Overcast,360,2013-05-02 01:53:00
9:53 PM,41.0,36.0,82,30.20,10.0,North,28.8,38.0,N/A,,Overcast,10,2013-05-02 02:53:00
10:53 PM,41.0,36.0,82,30.24,10.0,North,19.6,38.0,N/A,,Overcast,350,2013-05-02 03:53:00
11:42 PM,41.0,35.6,81,30.26,10.0,North,27.6,39.1,N/A,Thunderstorm,Thunderstorm,360,2013-05-02 04:42:00
11:53 PM,39.9,36.0,86,30.24,8.0,North,31.1,49.5,0.00,Rain-Thunderstorm,Light Thunderstorms and Rain,10,2013-05-02 04:53:00